Stations météo

réclame
Mon MeteoGroup
Visby Flygplats, Suède (2590): Température de l'air & dewpoint: 15.08.2018 06:00:00 - 21.08.2018 06:00:00 (CEST)Visby Flygplats, Suède (2590): Vitesse du vent & gusts: 15.08.2018 06:00:00 - 21.08.2018 06:00:00 (CEST)Visby Flygplats, Suède (2590): Direction du vent: 15.08.2018 06:00:00 - 21.08.2018 06:00:00 (CEST)Visby Flygplats, Suède (2590): reduced air pressure: 15.08.2018 06:00:00 - 21.08.2018 06:00:00 (CEST)Visby Flygplats, Suède (2590): visibility: 15.08.2018 06:00:00 - 21.08.2018 06:00:00 (CEST)Visby Flygplats, Suède (2590): Quantités de précipitations: 15.08.2018 06:00:00 - 21.08.2018 06:00:00 (CEST)
Date & Time tt [°C] td [°C] ff [km/h] ff [knt] fx [km/h] fx [knt] dd ppp [hPa] vv [km] rr [mm]
21.08.2018 06:00:00 - - - - - - - - - -
21.08.2018 05:00:00 - - - - - - - - - -
21.08.2018 04:00:00 - - - - - - - - - -
21.08.2018 03:00:00 - - - - - - - - - -
21.08.2018 02:00:00 - - - - - - - - - -
21.08.2018 01:00:00 - - - - - - - - - -
21.08.2018 00:00:00 - - - - - - - - - -
20.08.2018 23:00:00 - - - - - - - - - -
20.08.2018 22:00:00 - - - - - - - - - -
20.08.2018 21:00:00 - - - - - - - - - -
20.08.2018 20:00:00 - - - - - - - - - -
20.08.2018 19:00:00 - - - - - - - - - -
20.08.2018 18:00:00 - - - - - - - - - -
20.08.2018 17:00:00 - - - - - - - - - -
20.08.2018 16:00:00 18,0 17,0 18 10 - - NW - 10 -
20.08.2018 15:00:00 18,7 17,4 21 11 29 16 WNW 1005,9 10 0,0
20.08.2018 14:00:00 17,8 16,8 18 10 29 16 W 1006,0 10 0,4
20.08.2018 13:00:00 18,7 17,5 22 12 36 19 WSW 1006,0 10 0,6
20.08.2018 12:00:00 17,7 17,1 22 12 32 18 WSW 1006,5 6 0,7
20.08.2018 11:00:00 17,9 17,4 21 11 32 18 SW 1006,8 4,0 3,0
20.08.2018 10:00:00 16,8 16,3 8 4 22 12 SW 1007,3 3,0 0,7
20.08.2018 09:00:00 16,4 15,3 16 9 32 18 SSW 1007,9 10 0,6
20.08.2018 08:00:00 17,1 16,1 24 13 32 18 SW 1008,4 9 2,0
20.08.2018 07:00:00 17,5 16,4 22 12 32 18 WSW 1008,7 10 1,0
20.08.2018 06:00:00 17,8 16,7 24 13 32 18 WSW 1009,0 10 0,5
20.08.2018 05:00:00 17,0 16,5 13 7 18 10 S 1009,5 7 3,0
20.08.2018 04:00:00 16,7 16,2 11 6 22 12 SSW 1010,5 9 8,0
20.08.2018 03:00:00 16,8 16,3 9 5 14 8 S 1011,0 5 3,0
20.08.2018 02:00:00 17,1 16,3 5 3 18 10 S 1011,6 9 2,0
20.08.2018 01:00:00 17,6 16,3 15 8 22 12 WSW 1012,5 10 0,5
20.08.2018 00:00:00 18,0 16,9 15 8 22 12 WSW 1013,0 10 0,4
19.08.2018 23:00:00 18,2 16,5 16 9 25 14 WSW 1013,1 10 0,2
19.08.2018 22:00:00 18,4 16,4 21 11 29 16 WSW 1013,5 10 0,2
19.08.2018 21:00:00 18,6 16,6 22 12 32 18 WSW 1013,8 10 0,4
19.08.2018 20:00:00 18,9 17,2 21 11 29 16 SW 1013,8 10 0,7
19.08.2018 19:00:00 19,3 16,7 22 12 36 19 SW 1013,9 10 0,1
19.08.2018 18:00:00 20,2 16,0 26 14 36 19 SW 1013,8 10 0,0
19.08.2018 17:00:00 20,4 16,2 28 15 40 21 SW 1013,8 10 0,0
19.08.2018 16:00:00 20,4 16,4 31 17 43 23 SW 1014,3 10 0,0
19.08.2018 15:00:00 20,7 16,5 29 16 43 23 WSW 1014,2 10 0,0
19.08.2018 14:00:00 19,8 16,2 28 15 40 21 WSW 1014,3 10 0,0
19.08.2018 13:00:00 19,3 15,8 28 15 40 21 WSW 1014,3 10 0,0
19.08.2018 12:00:00 19,7 15,3 29 16 40 21 WSW 1014,3 10 0,0
19.08.2018 11:00:00 19,4 15,1 29 16 40 21 W 1014,3 10 0,0
19.08.2018 10:00:00 19,3 15,4 31 17 43 23 WSW 1014,1 10 0,0
19.08.2018 09:00:00 19,1 15,8 28 15 40 21 WSW 1014,0 10 0,0
19.08.2018 08:00:00 18,8 15,7 28 15 40 21 WSW 1013,9 10 0,0
19.08.2018 07:00:00 18,2 15,5 28 15 40 21 WSW 1013,9 10 0,0
19.08.2018 06:00:00 17,4 15,6 21 11 40 21 SW 1013,8 10 0,6
19.08.2018 05:00:00 17,9 15,3 28 15 43 23 SW 1013,8 10 0,4
19.08.2018 04:00:00 18,5 14,8 28 15 43 23 SW 1013,7 10 0,0
19.08.2018 03:00:00 18,4 14,5 28 15 40 21 SW 1013,8 10 0,0
19.08.2018 02:00:00 17,9 14,2 28 15 47 25 SW 1014,1 10 0,1
19.08.2018 01:00:00 18,7 13,8 31 17 47 25 SW 1014,4 10 0,0
19.08.2018 00:00:00 19,2 13,4 29 16 40 21 WSW 1014,8 10 0,0
18.08.2018 23:00:00 19,3 13,2 26 14 43 23 WSW 1015,0 10 0,0
18.08.2018 22:00:00 19,6 12,8 24 13 43 23 WSW 1015,0 10 0,0
18.08.2018 21:00:00 17,1 14,7 13 7 25 14 SSW 1015,4 10 0,0
18.08.2018 20:00:00 18,2 14,3 18 10 32 18 SSW 1015,4 10 0,0
18.08.2018 19:00:00 19,0 14,5 26 14 40 21 SSW 1015,4 10 0,0
18.08.2018 18:00:00 19,5 13,4 28 15 40 21 SSW 1015,7 10 0,0
18.08.2018 17:00:00 20,3 13,5 28 15 36 19 SSW 1016,1 10 0,0
18.08.2018 16:00:00 20,0 12,5 21 11 32 18 WSW 1016,3 10 0,0
18.08.2018 15:00:00 20,5 13,2 18 10 25 14 WSW 1016,4 10 0,0
18.08.2018 14:00:00 20,3 13,3 18 10 29 16 W 1017,0 10 0,0
18.08.2018 13:00:00 19,7 13,4 16 9 25 14 WSW 1017,1 10 0,0
18.08.2018 12:00:00 19,3 13,9 11 6 18 10 W 1017,2 10 0,0
18.08.2018 11:00:00 19,0 14,3 9 5 14 8 WNW 1017,3 10 0,0
18.08.2018 10:00:00 18,8 14,7 9 5 14 8 WNW 1017,4 10 0,0
18.08.2018 09:00:00 17,9 14,2 11 6 14 8 NW 1017,3 10 0,0
18.08.2018 08:00:00 17,8 14,5 9 5 14 8 NNW 1017,1 10 0,0
18.08.2018 07:00:00 17,8 14,5 11 6 18 10 NW 1016,7 10 0,0
18.08.2018 06:00:00 17,4 14,7 8 4 11 6 NNW 1016,3 10 0,0
18.08.2018 05:00:00 17,1 15,3 5 3 14 8 - 1015,9 10 0,0
18.08.2018 04:00:00 17,6 15,8 9 5 14 8 WNW 1016,0 10 0,0
18.08.2018 03:00:00 17,2 16,2 5 3 14 8 NNW 1016,1 10 1,0
18.08.2018 02:00:00 17,5 16,2 9 5 14 8 NW 1016,0 10 0,6
18.08.2018 01:00:00 18,4 15,8 8 4 14 8 NNW 1016,1 10 0,0
18.08.2018 00:00:00 18,8 17,5 8 4 14 8 NNW 1015,5 10 0,0
17.08.2018 23:00:00 18,7 16,7 9 5 25 14 WNW 1015,6 10 0,0
17.08.2018 22:00:00 19,9 17,1 21 11 32 18 SW 1015,4 10 0,0
17.08.2018 21:00:00 20,3 14,6 16 9 32 18 S 1015,0 10 0,0
17.08.2018 20:00:00 21,3 14,2 24 13 40 21 S 1014,4 10 0,0
17.08.2018 19:00:00 22,3 13,9 24 13 40 21 SSW 1014,2 10 0,0
17.08.2018 18:00:00 23,4 14,4 29 16 43 23 S 1014,1 10 0,0
17.08.2018 17:00:00 24,1 13,6 31 17 43 23 S 1014,1 10 0,0
17.08.2018 16:00:00 24,8 14,0 31 17 40 21 SSW 1014,5 10 0,0
17.08.2018 15:00:00 25,4 15,1 29 16 40 21 SSW 1015,0 10 0,0
17.08.2018 14:00:00 25,6 15,0 28 15 43 23 S 1015,5 10 0,0
17.08.2018 13:00:00 25,5 14,9 28 15 43 23 SSW 1015,7 10 0,0
17.08.2018 12:00:00 25,1 14,6 28 15 36 19 SSW 1016,1 10 0,0
17.08.2018 11:00:00 24,4 15,3 22 12 36 19 S 1016,2 10 0,0
17.08.2018 10:00:00 23,6 16,9 21 11 29 16 S 1016,4 10 0,0
17.08.2018 09:00:00 22,0 17,2 21 11 25 14 S 1016,4 10 0,0
17.08.2018 08:00:00 20,0 17,6 18 10 29 16 S 1016,6 10 0,0
17.08.2018 07:00:00 18,1 16,8 18 10 25 14 S 1016,6 10 0,0
17.08.2018 06:00:00 16,8 15,3 18 10 22 12 S 1016,6 10 0,0
17.08.2018 05:00:00 16,6 15,3 16 9 22 12 SSE 1016,8 10 0,0
17.08.2018 04:00:00 16,8 16,0 18 10 25 14 SSE 1016,8 10 0,0
17.08.2018 03:00:00 16,8 16,2 18 10 22 12 S 1017,0 10 0,0
17.08.2018 02:00:00 17,0 16,4 16 9 25 14 S 1017,2 10 -
17.08.2018 01:00:00 17,3 16,7 18 10 25 14 S 1017,3 10 0,0
17.08.2018 00:00:00 17,8 17,2 21 11 29 16 S 1017,3 8 0,0
16.08.2018 23:00:00 17,5 16,9 16 9 25 14 S 1017,0 8 0,0
16.08.2018 22:00:00 17,8 16,8 15 8 22 12 SSE 1017,0 10 0,0
16.08.2018 21:00:00 18,5 15,9 18 10 25 14 S 1017,0 10 0,0
16.08.2018 20:00:00 19,4 15,8 22 12 29 16 S 1016,9 10 0,0
16.08.2018 19:00:00 20,4 15,8 22 12 29 16 SSW 1016,8 10 0,0
16.08.2018 18:00:00 21,7 16,0 22 12 29 16 SSW 1016,9 10 0,0
16.08.2018 17:00:00 22,3 15,6 22 12 32 18 SSW 1017,0 10 0,0
16.08.2018 16:00:00 22,4 15,5 28 15 36 19 SSW 1017,3 10 0,0
16.08.2018 15:00:00 22,6 15,7 22 12 32 18 SSW 1017,5 10 0,0
16.08.2018 14:00:00 22,6 15,2 21 11 32 18 SSW 1017,5 10 0,0
16.08.2018 13:00:00 22,5 15,8 18 10 25 14 SW 1017,5 10 0,0
16.08.2018 12:00:00 21,9 14,3 16 9 22 12 WSW 1017,6 10 0,0
16.08.2018 11:00:00 21,5 15,8 16 9 22 12 SW 1017,9 10 0,0
16.08.2018 10:00:00 20,2 16,4 18 10 22 12 SSW 1017,7 10 0,0
16.08.2018 09:00:00 19,6 17,6 15 8 22 12 S 1017,6 10 0,0
16.08.2018 08:00:00 17,7 17,1 15 8 18 10 S 1017,4 10 0,0
16.08.2018 07:00:00 15,8 15,3 11 6 14 8 S 1017,2 10 0,0
16.08.2018 06:00:00 14,5 14,2 9 5 11 6 S 1017,2 10 0,0
16.08.2018 05:00:00 13,8 13,5 8 4 11 6 S 1017,0 10 0,0
16.08.2018 04:00:00 13,0 12,5 9 5 7 4 S 1016,9 10 0,0
16.08.2018 03:00:00 12,4 11,9 5 3 7 4 SSE 1016,7 10 0,0
16.08.2018 02:00:00 12,2 11,7 4 2 7 4 S 1016,6 10 0,0
16.08.2018 01:00:00 12,2 11,7 5 3 7 4 S 1016,7 10 0,0
16.08.2018 00:00:00 12,1 11,5 4 2 7 4 S 1016,3 10 0,0
15.08.2018 23:00:00 13,2 12,6 5 3 7 4 SSW 1016,2 10 0,0
15.08.2018 22:00:00 13,1 12,5 5 3 7 4 S 1015,9 10 0,0
15.08.2018 21:00:00 13,7 12,1 0 0 11 6 N 1015,5 10 0,0
15.08.2018 20:00:00 16,9 14,2 8 4 14 8 NW 1015,0 10 0,0
15.08.2018 19:00:00 17,8 14,5 8 4 18 10 N 1014,5 10 0,0
15.08.2018 18:00:00 18,2 14,5 11 6 22 12 N 1014,1 10 0,0
15.08.2018 17:00:00 18,5 14,6 16 9 25 14 NNW 1013,9 10 0,0
15.08.2018 16:00:00 18,0 15,1 18 10 25 14 NNW 1013,5 10 0,0
15.08.2018 15:00:00 17,7 15,3 21 11 32 18 NNW 1013,0 10 0,0
15.08.2018 14:00:00 17,5 15,1 21 11 25 14 NNW 1012,4 10 0,0
15.08.2018 13:00:00 17,5 15,1 21 11 29 16 NNW 1011,6 10 0,0
15.08.2018 12:00:00 17,8 15,4 21 11 29 16 NW 1010,9 10 0,0
15.08.2018 11:00:00 17,5 15,1 21 11 32 18 NW 1010,4 10 0,0
15.08.2018 10:00:00 17,6 15,6 21 11 29 16 NNW 1009,6 10 0,0
15.08.2018 09:00:00 17,8 16,1 21 11 25 14 N 1008,8 10 0,0
15.08.2018 08:00:00 17,8 16,1 15 8 25 14 N 1008,2 10 0,0
15.08.2018 07:00:00 17,8 16,3 15 8 18 10 N 1007,6 10 0,0
15.08.2018 06:00:00 16,8 16,3 8 4 11 6 NNE 1007,0 10 0,0

tt = Température de l'air
td = dewpoint
ff = Vitesse du vent
fx = gusts
dd = Direction du vent
ppp = reduced air pressure
vv = visibility
rr = Quantités de précipitations

stations d'obs. à proximité